LEMUR-2-REMY-COLTON (43884 NORAD) Tracking and Keplerian Element Data

This shows tracking and keplerian element data for the satellite.

Feedback or suggestion? Click here.




ElementValue
Catalog43884
NameLEMUR-2-REMY-COLTON
Epoch Orbit245
Epoch Day25.90288463
Epoch Year2019
RAAN295.9587
Inclination97.729
Eccentricity0.00126
Argument of Perigee138.5947
Mean Anonmoly221.6231
Mean Motion14.96407563
Decay Rate7.73E-06
L11 43884U 18111J 19025.90288463 .00000773 00000-0 73204-4 0 9993
L22 43884 97.7290 295.9587 0012600 138.5947 221.6231 14.96407563 2457

Live tracking and technical data element details for LEMUR-2-REMY-COLTON (NORAD 43884). LEMUR-2-REMY-COLTON can be tracked NOW for your location showing map with azimuth and elevation plus other details from your city location.

Track the satellite on the map from your city or location and see movement details for azimuth, elevation, latitude, longitude, range, height, and movement on the map or in text.







IsCatalogInMostPopularTable: catalog: 43884, numindb: 67
Update: records affected: 1



GetName: 43884 LEMUR-2-REMY-COLTON

Hit Count: updated at: Mon, 22 Jul 2019 17:18:09 GMT